Location: Helsinki
(60.1699°N, 24.9384°E)
Time: 10:48:42
(UTC+02:00)

RS-44 - Visible Passes

Search period start: 30 November 2022 00:00
Search period end: 10 December 2022 00:00
Orbit: 1175 x 1510 km, 82.5° (Epoch: 29 November)

Date Brightness Start Highest point End Pass type
(mag) Time Alt. Az. Time Alt. Az. Time Alt. Az.
30 Nov ? 02:35:23 17° SE 02:40:32 31° ENE 02:47:52 10° NNE visible
30 Nov ? 04:28:05 29° S 04:32:59 87° ESE 04:41:53 10° NNE visible
30 Nov ? 06:20:47 14° WSW 06:27:34 38° NW 06:35:43 10° NNE visible
30 Nov ? 17:54:04 10° NNW 17:58:53 16° WNW 18:03:40 10° W visible
01 Dec ? 01:09:07 10° E 01:12:54 14° ENE 01:16:45 10° NNE visible
01 Dec ? 03:00:18 29° SE 03:03:53 42° E 03:11:55 10° NNE visible
01 Dec ? 04:52:58 37° SSW 04:56:54 74° WNW 05:05:48 10° NNE visible
01 Dec ? 06:45:39 13° W 06:52:03 31° NW 06:59:44 10° NNE visible
01 Dec ? 16:23:17 10° NNW 16:31:04 35° W 16:38:45 10° SW visible
01 Dec ? 18:19:14 10° NW 18:21:46 11° NW 18:24:19 10° WNW visible
02 Dec ? 01:32:16 15° E 01:35:52 19° ENE 01:41:26 10° NNE visible
02 Dec ? 03:24:55 43° SE 03:27:23 55° E 03:35:54 10° NNE visible
02 Dec ? 05:17:35 38° WSW 05:20:58 58° WNW 05:29:44 10° NNE visible
02 Dec ? 07:10:14 11° W 07:16:40 26° NW 07:23:49 10° NNE visible
02 Dec ? 16:47:23 10° NNW 16:54:21 27° WNW 17:01:14 10° SW visible
03 Dec ? 01:56:43 23° E 01:58:58 26° ENE 02:05:43 10° NNE visible
03 Dec ? 03:49:21 59° SSE 03:51:01 73° E 03:59:52 10° NNE visible
03 Dec ? 05:42:00 34° WSW 05:45:12 45° WNW 05:53:41 10° NNE visible
03 Dec ? 07:35:01 10° WNW 07:41:26 22° NNW 07:48:01 10° NNE visible
03 Dec ? 17:11:38 10° NNW 17:17:29 20° WNW 17:23:18 10° WSW visible
04 Dec ? 00:29:44 10° ENE 00:31:36 11° NE 00:33:30 10° NE visible
04 Dec ? 02:21:03 33° E 02:22:13 34° ENE 02:29:50 10° NNE visible
04 Dec ? 04:13:41 72° SSW 04:14:49 88° W 04:23:48 10° NNE visible
04 Dec ? 06:06:19 28° W 06:09:33 36° NW 06:17:39 10° NNE visible
04 Dec ? 08:00:21 10° WNW 08:06:18 19° NNW 08:12:21 10° NNE visible
04 Dec ? 17:36:10 10° NNW 17:40:29 15° WNW 17:44:46 10° W visible
05 Dec ? 00:52:38 14° ENE 00:54:28 15° ENE 00:58:59 10° NNE visible
05 Dec ? 02:45:16 45° E 02:45:36 45° E 02:53:52 10° NNE visible
05 Dec ? 04:37:54 66° WSW 04:38:47 70° WNW 04:47:44 10° NNE visible
05 Dec ? 06:30:32 23° WNW 06:34:05 30° NW 06:41:41 10° NNE visible
05 Dec ? 16:05:13 10° NNW 16:12:47 33° WNW 16:20:12 10° SW visible
05 Dec ? 18:02:02 10° NW 18:03:20 10° NW 18:04:37 10° WNW visible
06 Dec ? 01:16:47 21° ENE 01:17:29 21° ENE 01:23:29 10° NNE visible
06 Dec ? 03:09:25 60° E 03:09:25 60° E 03:17:50 10° NNE visible
06 Dec ? 05:02:02 53° W 05:02:54 54° WNW 05:11:40 10° NNE visible
06 Dec ? 06:54:40 18° WNW 06:58:45 25° NW 07:05:48 10° NNE visible
06 Dec ? 16:29:20 10° NNW 16:36:01 25° WNW 16:42:35 10° WSW visible
07 Dec ? 01:40:53 28° ENE 01:40:53 28° ENE 01:47:42 10° NNE visible
07 Dec ? 03:33:30 74° ENE 03:33:30 74° ENE 03:41:47 10° NNE visible
07 Dec ? 05:26:07 42° WNW 05:27:09 43° NW 05:35:36 10° NNE visible
07 Dec ? 07:18:45 14° WNW 07:23:32 21° NNW 07:30:01 10° NNE visible
07 Dec ? 16:53:39 10° NNW 16:59:07 18° WNW 17:04:31 10° WSW visible
08 Dec ? 00:12:19 12° ENE 00:13:09 12° NE 00:16:08 10° NE visible
08 Dec ? 02:04:56 36° ENE 02:04:56 36° ENE 02:11:47 10° NNE visible
08 Dec ? 03:57:32 75° NNW 03:57:32 75° NNW 04:05:42 10° NNE visible
08 Dec ? 05:50:10 33° WNW 05:51:35 35° NW 05:59:35 10° NNE visible
08 Dec ? 07:42:46 11° WNW 07:48:26 19° NNW 07:54:24 10° NNE visible
08 Dec ? 17:18:22 10° NNW 17:22:04 13° NW 17:25:44 10° W visible
09 Dec ? 00:36:19 17° ENE 00:36:19 17° ENE 00:41:07 10° NNE visible
09 Dec ? 02:28:55 45° ENE 02:28:55 45° ENE 02:35:47 10° NNE visible
09 Dec ? 04:21:32 62° NW 04:21:32 62° NW 04:29:38 10° NNE visible
09 Dec ? 06:14:09 26° WNW 06:16:08 28° NW 06:23:38 10° NNE visible
09 Dec ? 08:07:49 10° NW 08:13:24 18° N 08:19:00 10° NNE visible
